EST,Max TemperatureF,Mean TemperatureF,Min TemperatureF,Max Dew PointF,MeanDew PointF,Min DewpointF,Max Humidity, Mean Humidity, Min Humidity, Max Sea Level PressureIn, Mean Sea Level PressureIn, Min Sea Level PressureIn, Max VisibilityMiles, Mean VisibilityMiles, Min VisibilityMiles, Max Wind SpeedMPH, Mean Wind SpeedMPH, Max Gust SpeedMPH,PrecipitationIn, CloudCover, Events, WindDirDegrees
2014-1-1,49,36,22,23,20,15,72,53,34,30.39,30.28,30.12,10,10,10,13,5,23,0.00,1,,156
2014-1-2,33,30,26,28,25,20,92,79,66,30.09,29.80,29.65,9,3,0,15,6,19,0.05,6,Fog-Snow,12
2014-1-3,27,16,5,23,4,-5,81,56,31,30.50,30.15,29.70,10,8,2,33,12,40,0.06,3,Snow,320
2014-1-4,31,17,2,11,5,-2,86,63,39,30.48,30.37,30.24,10,10,9,12,3,19,0.00,0,,166
2014-1-5,34,23,12,32,23,8,92,77,62,30.26,30.01,29.64,10,4,0,8,4,10,0.22,6,Fog-Rain,4
2014-1-6,46,25,4,37,19,-17,96,66,35,30.13,29.69,29.48,10,7,0,33,18,43,0.10,5,Fog-Rain,272
2014-1-7,13,7,1,-8,-12,-17,49,42,34,30.46,30.34,30.14,10,10,10,25,14,32,0.00,2,,276
2014-1-8,26,17,7,11,1,-9,69,52,35,30.59,30.51,30.46,10,10,10,13,3,17,0.00,3,,160
2014-1-9,37,28,19,19,14,9,71,56,41,30.65,30.57,30.49,10,10,9,10,2,15,0.00,6,,85
2014-1-10,38,35,32,33,30,20,92,74,56,30.50,30.31,30.13,10,3,1,9,2,13,0.10,8,Rain-Snow,26
2014-1-11,53,44,34,49,40,32,100,76,52,30.09,29.61,29.39,10,2,0,29,5,38,0.27,7,Fog-Rain,248
2014-1-12,48,38,28,31,27,23,78,62,45,30.10,29.92,29.62,10,10,8,25,11,36,0.00,4,,276
2014-1-13,53,39,24,36,28,21,88,66,44,30.09,29.98,29.83,10,8,5,10,2,18,T,1,,177
2014-1-14,50,39,28,45,38,27,93,77,60,29.91,29.80,29.71,10,9,2,14,4,26,0.14,5,Rain,214
2014-1-15,49,39,28,35,29,24,92,69,45,29.99,29.93,29.88,10,8,2,16,5,23,T,4,Snow,279
2014-1-16,38,32,26,24,16,13,69,53,37,30.04,29.96,29.88,10,9,2,13,5,18,T,3,Snow,318
2014-1-17,49,36,23,29,23,19,81,59,36,29.94,29.88,29.84,10,10,7,14,4,20,0.00,5,,90
2014-1-18,38,27,16,30,16,5,78,58,38,30.01,29.92,29.84,10,7,1,25,11,31,0.01,5,Snow,295
2014-1-19,44,32,19,23,16,10,73,56,39,29.94,29.81,29.73,10,10,10,26,5,34,0.00,4,,219
2014-1-20,51,38,24,27,23,18,75,55,35,29.89,29.75,29.66,10,10,10,26,10,33,0.00,3,,255
2014-1-21,38,26,13,27,19,-1,92,73,53,29.96,29.85,29.78,10,3,0,23,12,30,0.08,8,Fog-Snow,14
2014-1-22,17,10,2,-2,-7,-9,60,47,33,30.10,30.03,29.96,10,8,1,23,9,27,0.01,1,,325
2014-1-23,22,8,-6,9,-1,-9,79,62,45,30.47,30.25,30.10,10,8,1,23,8,29,T,5,Snow,272
2014-1-24,21,12,2,-4,-6,-8,60,46,31,30.53,30.36,30.02,10,10,10,22,8,26,0.00,0,,220
2014-1-25,34,24,13,22,12,-6,58,47,36,29.97,29.62,29.43,10,7,1,26,11,32,T,5,Snow,243
2014-1-26,28,19,10,16,6,-2,63,50,37,29.90,29.80,29.70,10,9,2,28,6,35,T,5,Snow,229
2014-1-27,39,27,14,26,8,-5,74,53,31,30.23,29.88,29.62,10,10,8,30,10,39,0.00,3,,305
2014-1-28,15,11,6,3,-8,-12,46,40,34,30.46,30.37,30.25,10,10,5,18,5,24,T,3,Snow,305
2014-1-29,22,14,6,4,-7,-14,80,56,31,30.37,30.30,30.24,10,10,9,20,5,24,T,1,,252
2014-1-30,30,14,-2,7,-2,-10,71,50,28,30.46,30.34,30.14,10,10,8,14,4,20,0.00,0,,159
2014-1-31,43,33,22,18,15,9,68,49,30,30.23,30.16,30.10,10,9,7,8,1,9,0.00,1,,231